Regional Weather Roundup
Issued by NWS Upton, NY

Current Version | Previous Version | Text Only | Print | Product List | Glossary On
Versions: 1 2 3 4 5 6 7 8 9 10 11 12 13 14 15 16 17 18 19 20 21 22 23 24 25 26 27 28 29 30 31 32 33 34 35 36 37 38 39 40 41 42 43 44 45 46 47 48 49 50
000
ASUS41 KOKX 210705
RWROKX
REGIONAL WEATHER ROUNDUP
NATIONAL WEATHER SERVICE NEW YORK NY
300 AM EDT THU AUG 21 2014

NOTE: "FAIR" INDICATES FEW OR NO CLOUDS BELOW 12,000 FEET WITH NO
SIGNIFICANT WEATHER AND/OR OBSTRUCTIONS TO VISIBILITY.

NYZ071-072-176-178-NJZ106-104-210800-
NEW YORK CITY METRO AREA


CITY           SKY/WX    TMP DP  RH WIND       PRES   REMARKS
CENTRAL PARK   MOCLDY    72  61  68 VRB3      30.06F
LAGUARDIA APRT CLOUDY    73  61  65 SW6       30.03S
KENNEDY INTL   MOCLDY    71  63  75 W7        30.04F
NEWARK/LIBERTY CLOUDY    72  62  71 W3        30.03F
BRNX BOT. GARD   N/A     72  61  68 N3        30.03S
TETERBORO      CLOUDY    72  61  68 SW6       30.03S
$$

NYZ177-179-078>081-210800-
LONG ISLAND NEW YORK

CITY           SKY/WX    TMP DP  RH WIND       PRES   REMARKS
FARMINGDALE    MOCLDY    67  62  84 CALM      30.03F
ISLIP          CLOUDY    66  62  87 CALM      30.02F
SHIRLEY        MOCLDY    62  59  90 CALM      30.04F
WESTHAMPTON    MOCLDY    59  55  87 CALM      30.06S
MONTAUK POINT    N/A     63  59  87 CALM      30.06S
$$

NYZ052-065-067-210800-
HUDSON VALLEY

CITY           SKY/WX    TMP DP  RH WIND       PRES   REMARKS
WHITE PLAINS   CLOUDY    67  62  84 CALM      30.04F
NEWBURGH       CLOUDY    70  59  68 SW7       30.05S
MONTGOMERY     CLOUDY    68  58  70 SW5       30.03S
POUGHKEEPSIE   CLOUDY    69  61  75 SW3       30.02S
ALBANY         CLOUDY    68  65  90 E6        30.01S
$$

NJZ001-105-106-008-010-013-015-019>022-104-210800-
NEW JERSEY

CITY           SKY/WX    TMP DP  RH WIND       PRES   REMARKS
NEWARK/LIBERTY CLOUDY    72  62  71 W3        30.03F
TETERBORO      CLOUDY    72  61  68 SW6       30.03S
CALDWELL       LGT RAIN  67  62  84 CALM      30.05S
MORRISTOWN     HVY RAIN  66  63  88 CALM      30.04F
SOMERVILLE     CLOUDY    65  62  90 CALM      30.02F
LINDEN         LGT RAIN  75  65  72 W3        30.05S
SUSSEX         LGT RAIN  68  63  84 CALM      30.03F
ANDOVER          N/A     66  62  87 CALM      30.04F
TRENTON        CLOUDY    70  63  78 CALM      30.03S
MILLVILLE      CLOUDY    68  65  90 CALM      30.02S
ATLANTIC CITY  CLOUDY    67  64  90 N3        30.03S
WRIGHTSTOWN    CLOUDY    68  63  86 CALM      30.01S
TOMS RIVER     CLOUDY    66  63  88 CALM      30.04S
BELMAR         CLOUDY    70  63  78 CALM      30.03F
$$

PAZ047>061-062-071-210800-
EASTERN PENNSYLVANIA

CITY           SKY/WX    TMP DP  RH WIND       PRES   REMARKS
PHILADELPHIA   CLOUDY    71  64  78 SE3       30.02F
ALLENTOWN      MOCLDY    72  63  73 CALM      30.01F
SCRANTON       MOCLDY    70  63  78 S3        30.01F
$$

CTZ002-004>006-009-010-012-RIZ004-006-007-MAZ004-011-015-210800-
SOUTHERN NEW ENGLAND
 IN CT

CITY           SKY/WX    TMP DP  RH WIND       PRES   REMARKS
BRADLEY INTL   LGT RAIN  66  61  84 CALM      30.05R
HARTFORD       CLOUDY    65  60  84 SE3       30.05R
DANBURY        CLOUDY    64  62  93 CALM      30.06F
WTRBRY/OXFORD  CLOUDY    64  59  82 CALM      30.07F
BRIDGEPORT     CLOUDY    70  64  81 CALM      30.03F
MERIDEN        CLOUDY    64  61  90 CALM      30.05S
NEW HAVEN      CLOUDY    67  62  84 CALM      30.04S
CHESTER        FAIR      63  61  94 CALM      30.06S
GROTON         CLOUDY    61  60  97 N3        30.05S
WILLIMANTIC    CLOUDY    61  59  93 CALM      30.06F

 IN RI

CITY           SKY/WX    TMP DP  RH WIND       PRES   REMARKS
PROVIDENCE     CLEAR     60  57  89 N5        30.06S
BLOCK ISLAND   PTCLDY    63  59  88 NE5       30.05S
WESTERLY       PTCLDY    57  55  93 CALM      30.06S

 IN MA

CITY           SKY/WX    TMP DP  RH WIND       PRES   REMARKS
BOSTON         MOCLDY    63  60  90 CALM      30.07R
WORCESTER      MOCLDY    62  53  72 CALM      30.08S
WESTFIELD      LGT RAIN  65  61  87 CALM      30.05S
PROVINCETOWN   PTCLDY    61  57  88 MISG      30.06R
NANTUCKET      CLOUDY    64  62  93 NE7       30.02R
$$

ANZ330-335-338-340-345-350-353-355-210800-
COASTAL MARINE OBSERVATIONS


STATION/POSITION TIME  SKY/WX   TEMP    WIND        PRES    VSBY  WAVE
                                AIR SEA DIR/SP/G                  HT/PER
                 (UTC)          (F)     (DEG/KT/KT) (MB)    (MI)  (FT/S)
NY HARB ENTRANCE NOT AVBL
4S FIRE IS       NOT AVBL
23SW MTP         0700            67 70              1017.0          2/ 7
HUDSON CANYON    0700            70 73   20/  8/ 10 1016.4          3/ 6
EXECUTION ROCKS  0700            71 73  180/  4/  6   N/A
WESTERN LI SOUND 0700            71     170/  6/  6   N/A           0
CENTRAL LI SOUND 0600            70 73  190/  2/  4   N/A           0
EASTERN LI SOUND 0600            65 69   20/  6/  6   N/A
ROBBINS REEF     0700            71     230/  3/  4   N/A
$$


>>>>>>>>>>>>>>>>>>>>>>>>>>>> KEY <<<<<<<<<<<<<<<<<<<<<<<<<<<
>                                                          <
>     SKY/WX - SKY CONDITION/PRESENT WEATHER               <
>     TMP    - TEMPERATURE IN FAHRENHEIT                   <
>     DP     - DEWPOINT IN FAHRENHEIT                      <
>     RH     - RELATIVE HUMIDITY IN PERCENT                <
>     WIND   - DIRECTION AND SPEED IN MPH                  <
>     PRES   - MEAN SEA LEVEL PRESSURE IN INCHES OF HG     <
>     WCI    - WIND CHILL INDEX                            <
>     VSB    - VISIBILITY IN MILES                         <
>     HX     - HEAT INDEX                                  <
>     TC     - TEMPERATURE IN CELSIUS                      <
>     VRB    - VARIABLE WIND DIRECTION                     <
>                                                          <
>>>>>>>>>>>>>>>>>>>>>>>>>>>> KEY <<<<<<<<<<<<<<<<<<<<<<<<<<<





USA.gov is the U.S. government's official web portal to all federal, state and local government web resources and services.